Temperature
10 10 10 10 10 10 10 10 10 10 10 10 11 11 10 10 10 10 10 10 10 10 10 10 10 10 10 10 10 10 10 10 9 9 9 9 9 9 9 9 9 9 9
10 10 10 10 10 10 10 10 10 10 10 10 10 10 10 10 10 10 10 10 10 10 10 10 9 9 9 9 9 9 9 9 9 8 8 8 8 8 9 9 8 8 8
10 10 10 10 10 10 10 10 9 9 10 10 10 10 10 10 10 10 10 10 9 9 9 9 9 9 9 9 8 8 8 8 8 8 7 7 7 7 7 8 8 8 8
9 10 10 10 10 10 9 9 9 9 9 9 9 9 9 9 9 9 9 9 9 9 9 8 8 8 8 8 8 8 8 7 7 7 7 6 6 6 6 7 7 7 7
9 9 9 9 9 9 9 9 9 9 9 9 9 9 9 9 9 9 9 8 8 8 8 8 8 8 7 7 7 7 7 7 7 7 6 6 6 6 5 5 6 6 6
9 9 9 9 9 9 9 9 8 8 8 8 8 8 8 8 8 8 8 8 8 8 8 7 7 7 7 7 7 7 6 6 6 6 6 6 5 5 5 5 5 5 6
9 9 9 9 9 9 8 8 8 8 8 8 8 8 8 8 8 8 8 7 7 7 7 7 7 7 7 7 6 6 6 6 6 5 5 5 5 5 5 4 4 4 5
9 9 8 8 8 8 8 8 8 8 8 7 7 7 7 7 7 7 7 7 6 6 6 6 6 6 6 6 6 6 6 5 5 5 5 5 5 4 4 4 4 4 4
8 8 8 8 8 8 8 8 8 7 7 7 7 7 7 7 7 7 6 6 6 6 6 6 6 6 6 6 6 5 5 5 5 4 4 4 4 4 4 4 3 3 3
8 8 8 8 8 8 8 7 7 7 7 7 7 7 6 6 6 6 6 6 6 6 5 5 5 5 5 5 5 5 4 4 4 4 4 3 3 3 3 3 3 3 2
8 8 8 8 7 7 7 7 7 7 7 6 6 6 6 6 6 6 6 6 5 5 5 5 5 5 5 4 4 4 4 4 4 3 3 3 3 3 3 3 3 2 2
8 8 8 7 7 7 7 7 7 7 6 6 6 6 6 6 6 6 5 5 5 5 5 4 4 4 4 4 4 4 3 3 3 3 2 2 2 2 2 2 2 2 2
8 8 7 7 7 7 7 7 7 6 6 6 6 6 5 5 5 5 5 5 5 4 4 4 4 4 3 3 3 3 3 3 2 2 2 2 2 2 2 2 1 1 1
7 7 7 7 7 7 6 6 6 6 6 5 5 5 5 5 5 5 5 4 4 4 4 4 3 3 3 3 2 2 2 2 2 2 1 1 1 1 1 1 1 1 1
7 7 7 7 7 7 6 6 6 6 5 5 5 5 5 4 4 4 4 4 3 3 3 3 3 3 2 2 2 2 1 1 1 1 1 1 1 1 0 0 0 0 -0
7 7 7 7 7 6 6 6 6 5 5 5 5 4 4 4 4 4 3 3 3 3 3 2 2 2 2 2 1 1 1 1 1 1 1 1 0 0 0 -0 -0 -1 -1
7 6 6 6 6 6 6 5 5 5 5 5 4 4 4 4 3 3 3 3 3 2 2 2 2 2 2 1 1 1 0 0 0 0 0 0 -0 -0 -0 -1 -1 -1 -1
6 6 6 6 6 6 5 5 5 5 4 4 4 4 3 3 3 3 3 2 2 2 2 2 2 1 1 1 1 0 0 0 -0 -0 -0 -1 -1 -1 -1 -1 -1 -1 -1
6 6 6 5 5 5 5 5 4 4 4 4 4 3 3 3 3 2 2 2 2 2 2 1 1 1 1 1 0 -0 -0 -0 -0 -1 -1 -1 -1 -1 -2 -2 -2 -1 -1
5 5 5 5 5 5 5 4 4 4 4 3 3 3 2 2 2 2 2 1 1 1 1 1 1 1 1 0 0 -0 -1 -1 -1 -1 -1 -1 -2 -2 -2 -2 -2 -2 -2
5 5 5 4 4 4 4 4 4 3 3 3 2 2 2 2 2 1 1 1 1 1 1 1 1 0 0 0 -0 -1 -1 -1 -1 -1 -1 -2 -2 -2 -2 -3 -3 -3 -3
4 4 4 4 4 4 3 3 3 3 2 2 2 2 2 1 1 1 1 1 0 0 0 0 0 0 0 -0 -0 -1 -1 -2 -2 -2 -2 -2 -2 -3 -3 -3 -3 -3 -3
4 4 3 3 3 3 3 3 3 2 2 2 2 2 1 1 1 1 0 0 0 -0 -0 -0 0 0 -0 -0 -1 -1 -1 -2 -2 -2 -2 -2 -3 -3 -3 -3 -3 -4 -4
3 3 3 3 3 3 2 2 2 2 1 1 1 1 1 1 0 0 0 -0 -0 -0 -0 -0 -0 -0 -0 -1 -1 -1 -2 -2 -2 -3 -3 -3 -3 -3 -3 -3 -4 -4 -4
3 3 2 2 2 2 2 2 2 1 1 1 1 1 1 0 0 -0 -0 -0 -1 -1 -1 -1 -1 -1 -1 -1 -2 -2 -2 -2 -3 -3 -3 -3 -3 -3 -3 -4 -4 -4 -4
2 2 2 2 2 2 2 2 1 1 1 1 0 0 0 -0 -0 -0 -0 -1 -1 -1 -1 -1 -2 -1 -2 -2 -2 -2 -2 -3 -3 -4 -4 -4 -4 -4 -4 -4 -4 -4 -4
Wind_Speed
2 1 2 2 2 2 2 1 1 1 1 1 1 1 0 1 1 2 3 4 4 3 3 2 2 2 1 1 2 2 2 2 2 1 2 2 2 1 1 1 1 2 3
1 1 1 2 2 2 1 1 1 1 0 1 1 1 1 0 0 1 3 4 4 4 2 2 1 1 1 2 2 2 1 1 3 1 1 2 2 2 2 1 1 2 3
4 3 2 2 1 1 1 1 0 0 0 1 1 1 2 1 1 2 2 3 4 3 3 2 1 2 1 1 1 1 1 1 2 1 0 0 2 3 2 1 1 2 2
4 3 2 2 2 2 1 1 0 0 1 1 1 1 1 1 1 1 1 2 3 3 2 2 2 1 1 2 2 1 1 0 1 1 1 1 1 2 3 2 2 3 3
4 3 3 3 2 1 1 1 0 0 1 0 1 1 1 1 1 0 1 2 2 2 2 2 2 1 1 2 2 2 1 0 1 1 1 1 2 2 3 5 4 3 3
2 1 1 1 1 0 1 0 0 1 0 0 1 2 2 2 1 0 1 2 2 2 2 2 1 1 1 2 2 2 1 1 1 1 1 2 2 2 3 4 5 5 4
2 1 1 1 1 1 1 1 1 2 1 1 1 2 3 3 2 2 1 1 1 2 2 1 1 1 1 1 1 1 1 1 1 1 2 2 2 2 3 4 5 6 4
2 2 2 2 2 2 2 1 2 2 2 2 3 2 3 2 2 2 2 2 2 2 2 1 1 1 1 1 1 1 1 1 1 2 2 2 2 2 3 3 4 6 5
2 2 2 2 2 2 3 3 3 3 3 3 3 3 3 3 3 3 2 2 2 2 1 1 1 1 1 1 1 1 2 1 1 2 2 2 2 3 3 3 3 4 6
2 3 2 3 2 2 3 2 3 3 3 3 3 3 3 3 3 2 3 3 2 2 1 1 1 1 1 1 1 1 1 1 2 1 2 2 3 3 2 2 3 3 5
4 3 3 3 2 2 2 2 2 3 3 3 3 3 3 3 3 3 3 3 3 2 2 2 2 2 2 1 1 1 1 1 2 2 2 3 3 3 3 3 3 3 4
3 3 3 2 2 2 3 3 3 3 4 3 3 3 3 2 3 3 4 3 3 3 3 2 2 2 2 2 2 2 2 2 2 3 3 4 4 4 3 3 3 4 4
3 3 3 3 3 3 3 4 4 4 3 3 3 3 3 3 4 4 3 3 3 3 2 2 3 3 3 2 3 3 2 3 3 3 4 4 4 4 4 4 4 4 4
4 3 4 4 4 4 4 4 4 4 3 2 3 4 4 4 4 4 3 3 3 3 3 3 3 3 3 3 3 3 3 3 4 4 4 5 4 5 5 4 5 5 5
5 5 5 5 4 4 4 4 4 3 3 3 4 5 4 3 3 3 3 3 3 4 3 3 3 3 3 3 3 3 3 3 4 4 4 5 6 7 6 5 5 5 5
6 6 6 5 5 5 5 4 4 4 3 3 5 4 3 3 3 4 3 3 3 3 3 3 4 4 4 6 6 4 3 4 4 5 5 5 6 8 9 10 9 7 6
7 6 6 6 6 5 5 5 4 3 3 4 4 4 4 4 4 4 3 4 4 3 4 4 4 5 6 7 7 7 3 4 4 5 5 5 5 7 6 8 10 9 11
6 6 5 5 5 4 4 4 3 3 3 4 4 4 4 4 4 3 4 5 4 4 4 5 5 5 6 8 8 7 4 3 4 5 5 5 6 6 6 6 6 6 7
6 5 5 5 4 4 3 2 3 3 4 5 5 5 4 4 4 4 5 4 3 4 4 4 5 5 6 8 8 7 3 3 5 5 5 5 5 9 10 6 7 7 7
4 4 3 3 4 4 3 3 4 4 5 6 5 5 4 4 5 5 5 4 4 5 4 5 5 5 6 8 8 7 3 4 4 4 5 7 7 9 10 6 6 8 7
4 3 3 3 4 4 3 4 5 6 6 5 4 4 4 5 5 4 4 3 3 3 4 5 5 5 6 7 8 8 3 4 4 4 4 5 9 10 10 9 6 9 8
4 4 3 5 5 4 4 5 6 6 4 4 4 5 4 4 4 4 4 3 3 4 4 4 5 4 5 7 8 9 8 6 4 5 4 5 9 9 10 8 8 10 8
5 4 4 5 5 4 5 6 7 5 4 4 5 5 4 4 3 4 4 3 3 4 4 4 4 5 4 5 9 9 9 9 5 4 7 8 9 7 6 8 9 7 4
5 4 4 5 6 5 5 6 6 4 4 5 5 4 4 4 3 3 3 3 4 4 4 4 5 5 4 4 4 4 5 7 6 5 6 7 7 5 5 6 5 3 3
5 5 5 6 7 6 6 6 5 4 5 5 5 4 4 4 4 4 4 5 5 5 5 5 5 5 5 6 7 5 4 4 4 3 2 1 2 3 3 3 3 3 3
6 6 6 7 7 6 7 6 5 5 5 5 4 4 4 4 3 4 5 7 7 10 11 9 7 6 8 9 9 9 9 8 6 3 2 3 4 4 4 4 4 3 4
Wind_Direction
256 166 139 123 112 104 106 117 122 108 115 113 120 116 280 329 8 26 31 30 22 23 41 36 17 14 24 10 359 351 355 359 349 357 344 328 315 328 317 337 360 16 12
256 175 156 142 148 145 126 122 119 142 150 156 165 172 171 245 265 357 17 21 21 11 30 39 10 4 3 14 10 15 5 358 10 11 348 331 333 2 341 339 348 346 15
215 212 199 191 171 165 162 191 205 360 33 71 88 79 64 28 5 358 2 358 9 2 10 12 11 358 358 343 340 1 36 341 345 13 51 332 291 318 308 329 344 345 339
216 209 208 217 216 219 184 178 149 4 6 93 117 139 158 197 255 279 325 340 353 351 2 1 359 358 354 345 331 357 354 225 312 330 334 261 258 287 304 304 327 332 322
213 213 218 226 222 203 182 211 131 40 7 79 148 158 184 207 232 281 358 351 347 344 353 359 359 341 338 331 338 344 341 300 269 279 298 303 297 264 269 288 300 308 297
219 216 230 211 219 166 153 172 161 272 283 167 159 176 203 212 196 286 333 337 339 330 355 2 342 324 325 321 324 324 328 319 299 287 275 266 268 278 274 281 292 297 295
187 194 199 213 229 223 219 211 211 249 255 222 225 215 216 212 213 234 257 298 317 311 319 332 324 322 317 318 318 323 317 310 288 279 285 285 279 277 276 280 290 295 295
211 221 230 230 235 239 232 217 231 247 246 239 248 242 229 220 229 225 215 234 253 274 289 289 299 314 326 331 336 326 306 309 292 302 298 291 291 285 275 273 288 298 295
252 248 247 244 251 256 248 231 229 247 252 244 247 249 240 226 228 223 210 223 237 252 275 275 283 302 311 316 323 319 318 328 319 308 308 307 303 301 294 287 275 273 289
269 265 256 248 249 251 253 240 229 239 252 250 246 250 243 235 229 220 220 227 235 229 240 266 275 294 301 298 308 316 312 325 316 310 321 316 305 299 295 287 282 269 269
270 269 274 271 261 261 254 243 239 244 255 252 250 256 260 251 231 228 233 228 228 226 230 239 246 257 265 274 268 280 288 296 317 324 314 304 302 300 298 293 290 284 272
272 271 274 280 279 275 273 263 252 249 254 254 250 257 262 257 245 243 244 230 223 223 224 224 231 245 252 248 245 265 272 272 286 293 295 294 301 298 298 296 292 288 279
281 285 286 276 270 270 272 268 261 256 259 254 249 258 257 249 249 246 242 233 223 226 222 216 229 240 244 241 244 247 255 259 266 273 277 284 289 291 292 292 289 288 288
271 265 268 266 263 262 263 266 267 260 253 245 243 252 253 248 250 248 238 232 224 223 227 228 235 241 243 241 244 248 254 262 270 271 271 275 275 277 282 286 284 290 291
275 261 259 263 264 265 265 263 263 262 249 242 248 254 258 253 251 249 241 234 228 228 225 228 241 246 244 242 242 246 250 257 270 275 274 273 275 279 281 285 284 288 290
269 267 265 264 262 260 261 265 264 260 244 245 255 261 257 253 252 253 244 234 235 234 225 227 235 243 250 256 255 255 245 252 261 272 279 281 281 285 288 289 288 283 282
266 267 266 260 259 257 251 254 260 259 246 250 259 261 251 251 254 254 247 239 237 231 230 232 233 243 251 258 261 261 252 250 255 264 275 286 288 293 290 289 291 287 281
259 265 266 265 262 252 247 252 257 253 250 256 260 258 252 253 258 253 250 247 238 234 235 238 237 245 256 261 264 267 257 249 257 261 262 271 281 283 286 284 287 285 285
256 260 259 259 257 252 243 242 259 255 256 259 260 257 253 254 253 253 254 251 241 244 240 241 236 242 257 262 262 266 249 257 265 264 262 269 274 284 290 290 285 288 289
269 269 274 271 263 260 235 232 253 253 256 256 258 258 250 247 249 250 254 254 243 245 245 248 241 239 249 261 261 262 242 253 267 272 268 272 282 290 293 287 283 285 288
274 271 269 267 263 256 228 238 249 253 256 257 258 259 252 247 249 249 249 250 247 248 248 253 254 246 251 262 260 258 246 246 262 271 270 270 284 288 291 291 282 283 291
281 273 270 275 272 251 228 244 254 258 258 255 256 257 254 251 251 244 252 248 241 246 253 257 267 258 255 260 260 259 258 256 253 264 267 272 284 290 295 295 293 296 301
272 266 258 271 276 257 231 243 258 256 251 253 256 259 260 255 244 239 246 253 242 242 251 250 261 268 258 257 261 262 262 260 256 260 272 280 286 294 298 297 301 303 303
271 266 259 265 274 267 252 246 253 247 239 249 257 258 257 264 256 246 240 241 242 243 249 251 257 263 262 255 255 257 260 258 260 264 268 274 281 287 291 299 303 299 291
268 259 252 259 267 267 264 261 248 234 238 247 254 255 250 253 257 253 243 241 238 237 242 243 243 251 260 260 257 252 247 243 248 266 268 264 280 279 282 289 287 289 295
266 263 259 258 264 262 263 263 247 226 228 246 251 250 250 252 252 261 275 262 255 263 259 256 252 251 257 271 267 261 259 259 256 256 259 258 262 268 273 280 286 282 283
Height
1498 1499 1500 1501 1502 1503 1504 1506 1507 1507 1507 1508 1508 1507 1507 1507 1507 1507 1507 1506 1505 1505 1505 1505 1504 1504 1503 1502 1502 1501 1501 1500 1499 1498 1497 1496 1496 1496 1496 1496 1496 1496 1496
1496 1497 1499 1500 1501 1502 1503 1504 1504 1505 1504 1504 1505 1505 1504 1504 1504 1504 1504 1504 1504 1503 1503 1502 1501 1501 1500 1500 1499 1498 1497 1497 1497 1496 1494 1494 1494 1492 1493 1492 1493 1492 1492
1493 1496 1497 1498 1499 1500 1501 1502 1503 1503 1502 1502 1502 1502 1502 1502 1502 1502 1501 1501 1501 1501 1500 1499 1499 1498 1497 1496 1496 1496 1495 1494 1494 1494 1494 1493 1491 1490 1489 1489 1489 1489 1489
1493 1494 1495 1496 1498 1499 1500 1501 1501 1501 1500 1500 1500 1500 1499 1500 1500 1500 1499 1499 1498 1498 1497 1497 1496 1496 1495 1494 1494 1493 1492 1492 1491 1492 1492 1492 1491 1490 1486 1486 1486 1485 1485
1491 1493 1494 1496 1497 1498 1498 1499 1499 1499 1499 1498 1498 1498 1498 1497 1497 1497 1497 1497 1496 1496 1495 1494 1494 1494 1492 1491 1491 1490 1489 1489 1489 1488 1488 1488 1488 1487 1486 1482 1481 1481 1481
1490 1492 1493 1495 1495 1496 1497 1497 1497 1497 1497 1497 1496 1496 1496 1495 1495 1495 1494 1494 1493 1493 1492 1492 1492 1491 1490 1489 1488 1488 1487 1486 1486 1486 1485 1485 1484 1484 1483 1480 1477 1476 1476
1489 1491 1492 1493 1494 1494 1495 1495 1495 1496 1495 1495 1494 1494 1493 1493 1492 1492 1491 1491 1491 1490 1489 1489 1489 1488 1487 1486 1486 1485 1484 1484 1483 1483 1482 1482 1481 1481 1480 1478 1475 1472 1471
1488 1489 1491 1492 1492 1492 1493 1493 1493 1493 1493 1492 1492 1491 1491 1490 1490 1489 1489 1489 1488 1488 1487 1486 1485 1485 1484 1484 1483 1482 1481 1481 1480 1479 1479 1478 1478 1477 1476 1475 1473 1469 1466
1487 1488 1489 1490 1490 1491 1491 1491 1490 1490 1490 1490 1490 1489 1488 1488 1487 1486 1486 1486 1486 1485 1484 1483 1482 1481 1481 1481 1480 1479 1478 1477 1476 1476 1475 1475 1474 1473 1473 1471 1470 1469 1464
1486 1487 1488 1488 1488 1488 1488 1488 1488 1488 1488 1487 1487 1486 1486 1485 1484 1483 1483 1483 1482 1481 1481 1480 1479 1478 1478 1477 1476 1475 1475 1474 1473 1472 1472 1471 1470 1470 1469 1468 1466 1465 1463
1485 1485 1486 1486 1486 1486 1486 1485 1485 1485 1485 1484 1484 1483 1483 1482 1481 1480 1480 1480 1479 1478 1478 1477 1476 1475 1475 1474 1473 1472 1472 1471 1470 1469 1468 1468 1467 1466 1464 1463 1462 1461 1459
1484 1484 1484 1484 1483 1483 1483 1482 1482 1482 1482 1481 1480 1480 1479 1478 1477 1477 1477 1476 1476 1475 1474 1474 1473 1472 1471 1471 1470 1469 1468 1467 1466 1465 1465 1464 1463 1461 1460 1459 1458 1456 1455
1482 1482 1482 1481 1481 1481 1480 1480 1479 1479 1478 1478 1477 1476 1475 1475 1474 1474 1473 1473 1472 1471 1470 1470 1469 1468 1468 1467 1466 1465 1464 1463 1462 1462 1461 1460 1459 1457 1456 1455 1454 1452 1450
1480 1480 1479 1479 1478 1478 1477 1477 1476 1476 1475 1474 1473 1472 1472 1471 1470 1469 1469 1468 1468 1467 1466 1466 1465 1465 1464 1463 1462 1461 1460 1459 1459 1458 1457 1456 1455 1453 1452 1451 1449 1447 1446
1477 1477 1476 1476 1475 1475 1474 1474 1473 1472 1471 1470 1469 1469 1468 1467 1466 1465 1465 1464 1463 1463 1462 1461 1461 1460 1459 1459 1458 1457 1456 1455 1454 1454 1453 1452 1450 1449 1448 1447 1445 1443 1441
1475 1474 1474 1473 1472 1472 1471 1470 1470 1469 1468 1467 1466 1465 1464 1463 1462 1461 1461 1460 1459 1458 1458 1457 1457 1456 1455 1455 1454 1453 1452 1451 1450 1449 1448 1447 1446 1444 1443 1442 1440 1439 1437
1472 1471 1470 1470 1469 1468 1468 1467 1466 1465 1464 1463 1462 1461 1460 1458 1458 1457 1456 1455 1455 1454 1453 1453 1452 1452 1451 1450 1450 1449 1448 1447 1446 1445 1443 1442 1441 1440 1438 1437 1435 1434 1432
1469 1468 1467 1466 1466 1465 1464 1463 1462 1461 1460 1459 1458 1456 1455 1454 1453 1452 1451 1451 1450 1449 1449 1448 1447 1447 1447 1446 1445 1444 1443 1442 1441 1440 1439 1437 1436 1434 1433 1431 1430 1428 1427
1466 1465 1464 1463 1462 1461 1460 1459 1458 1457 1455 1454 1453 1452 1451 1449 1448 1447 1447 1446 1445 1444 1444 1443 1443 1442 1441 1441 1440 1439 1438 1437 1436 1435 1434 1432 1431 1430 1428 1426 1424 1422 1421
1462 1461 1460 1459 1458 1457 1456 1454 1453 1452 1451 1450 1448 1447 1446 1445 1444 1443 1442 1441 1440 1440 1439 1438 1438 1437 1436 1436 1435 1435 1433 1432 1431 1430 1429 1428 1426 1425 1423 1422 1419 1417 1415
1458 1457 1456 1455 1454 1453 1451 1449 1448 1447 1446 1445 1444 1442 1441 1440 1439 1438 1437 1436 1435 1435 1434 1433 1433 1432 1431 1431 1431 1430 1429 1428 1426 1425 1424 1423 1422 1420 1419 1417 1415 1413 1411
1454 1453 1451 1450 1449 1448 1446 1444 1443 1442 1441 1440 1439 1438 1437 1436 1434 1433 1433 1432 1431 1430 1429 1428 1427 1427 1427 1426 1426 1425 1424 1423 1422 1420 1420 1418 1417 1416 1414 1412 1410 1408 1406
1449 1448 1446 1445 1444 1443 1441 1439 1438 1437 1436 1435 1433 1433 1432 1431 1430 1429 1428 1427 1426 1425 1424 1423 1422 1422 1422 1422 1421 1420 1420 1418 1417 1416 1415 1414 1413 1411 1409 1408 1406 1404 1401
1444 1443 1441 1440 1438 1437 1436 1434 1433 1432 1431 1429 1428 1427 1426 1425 1425 1424 1423 1422 1421 1420 1419 1418 1418 1417 1417 1417 1416 1415 1414 1414 1413 1412 1410 1409 1408 1406 1404 1403 1401 1399 1397
1439 1438 1437 1435 1433 1432 1431 1429 1428 1427 1426 1424 1423 1422 1422 1421 1420 1419 1418 1417 1417 1416 1415 1414 1413 1412 1412 1412 1411 1410 1409 1409 1408 1407 1406 1404 1403 1401 1399 1398 1396 1395 1393
1434 1433 1431 1430 1428 1427 1425 1424 1423 1422 1421 1419 1418 1417 1417 1416 1415 1414 1414 1413 1412 1411 1410 1410 1409 1408 1408 1407 1406 1406 1405 1404 1404 1402 1400 1399 1398 1396 1395 1393 1392 1390 1389